FW0984 Weather Reports


Display with metric or nautical units.
time (UTC)temp
F
wind
direction
speed
MPH
gust
MPH
rain 1hr
in
rain 24hr
in
rain mn
in
humidity
%
barometer
mb
20260831224513 87 300 0.0 0.0 0.00 0.00 0.00 66 1016.2
20260831223013 87 300 0.0 0.0 0.00 0.00 0.00 63 1016.4
20260831221509 87 309 0.0 0.0 0.00 0.00 0.00 62 1016.7
20260831220019 88 309 0.0 0.0 0.00 0.00 0.00 61 1017.0
20260831214506 88 308 0.0 0.0 0.00 0.00 0.00 60 1017.1
20260831213007 89 264 0.0 0.0 0.00 0.00 0.00 61 1017.2
20260831211503 89 264 0.0 0.0 0.00 0.00 0.00 58 1017.3
20260831210001 89 288 0.0 0.0 0.00 0.00 0.00 59 1017.5
20260831204601 90 306 0.0 0.0 0.00 0.00 0.00 57 1017.7
20260831203105 90 275 0.0 0.0 0.00 0.00 0.00 58 1017.8
20260831201557 89 300 0.0 0.0 0.00 0.00 0.00 57 1017.8
20260831200107 88 76 0.0 0.0 0.00 0.00 0.00 63 1018.2
20260831194610 89 323 0.0 0.0 0.00 0.00 0.00 60 1018.4
20260831193055 89 291 0.0 0.0 0.00 0.00 0.00 60 1018.5
20260831191554 89 252 0.0 0.0 0.00 0.00 0.00 59 1018.5
20260831190105 89 311 0.0 0.0 0.00 0.00 0.00 66 1018.7
20260831184552 89 294 0.0 0.0 0.00 0.00 0.00 62 1019.0
20260831183051 90 285 0.0 0.0 0.00 0.00 0.00 62 1019.1
20260831181556 89 304 0.0 0.0 0.00 0.00 0.00 64 1019.0
20260831180055 88 283 0.0 0.0 0.00 0.00 0.00 66 1019.2
20260831174544 86 319 0.0 0.0 0.00 0.00 0.00 72 1019.3
20260831173043 87 318 0.0 0.0 0.00 0.00 0.00 69 1019.4
20260831171542 87 287 0.0 0.0 0.00 0.00 0.00 69 1019.5
20260831170041 87 279 0.0 0.0 0.00 0.00 0.00 74 1019.4
20260831164543 85 254 0.0 0.0 0.00 0.00 0.00 75 1019.7
20260831163040 85 279 0.0 0.0 0.00 0.00 0.00 74 1019.8
20260831161544 84 300 0.0 0.0 0.00 0.00 0.00 73 1019.8
20260831160037 86 289 0.0 0.0 0.00 0.00 0.00 71 1019.8
20260831154535 87 294 0.0 0.0 0.00 0.00 0.00 71 1019.8
20260831153030 86 263 0.0 0.0 0.00 0.00 0.00 72 1019.8
20260831151529 84 269 0.0 0.0 0.00 0.00 0.00 75 1019.7
20260831150023 83 269 0.0 0.0 0.00 0.00 0.00 78 1019.8
20260831144522 81 163 0.0 0.0 0.00 0.00 0.00 81 1019.7
20260831143014 79 244 0.0 0.0 0.00 0.00 0.00 87 1019.7
20260831141509 77 244 0.0 0.0 0.00 0.00 0.00 86 1019.6
20260831140007 76 244 0.0 0.0 0.00 0.00 0.00 91 1019.6
20260831134502 74 244 0.0 0.0 0.00 0.00 0.00 94 1019.6
20260831133100 73 244 0.0 0.0 0.00 0.00 0.00 96 1019.7
20260831131554 72 130 0.0 0.0 0.00 0.00 0.00 96 1019.6
20260831130051 71 130 0.0 0.0 0.00 0.00 0.00 96 1019.5
20260831124550 70 130 0.0 0.0 0.00 0.00 0.00 96 1019.6
20260831123043 70 130 0.0 0.0 0.00 0.00 0.00 95 1019.5
20260831121542 69 130 0.0 0.0 0.00 0.00 0.00 95 1019.5
20260831120042 69 130 0.0 0.0 0.00 0.00 0.00 95 1019.5
20260831114538 69 130 0.0 0.0 0.00 0.00 0.00 95 1019.3
20260831113034 69 130 0.0 0.0 0.00 0.00 0.00 95 1019.1
20260831111532 69 130 0.0 0.0 0.00 0.00 0.00 94 1019.1
20260831110040 69 130 0.0 0.0 0.00 0.00 0.00 94 1018.9
20260831104535 69 130 0.0 0.0 0.00 0.00 0.00 94 1018.8
20260831103030 69 130 0.0 0.0 0.00 0.00 0.00 94 1018.7
20260831101529 69 130 0.0 0.0 0.00 0.00 0.00 94 1018.6
20260831100027 69 130 0.0 0.0 0.00 0.00 0.00 95 1018.5
20260831094526 69 130 0.0 0.0 0.00 0.00 0.00 95 1018.6
20260831093025 69 130 0.0 0.0 0.00 0.00 0.00 95 1018.5
20260831091537 69 130 0.0 0.0 0.00 0.00 0.00 95 1018.6
20260831090028 69 130 0.0 0.0 0.00 0.00 0.00 95 1018.6
20260831084522 69 130 0.0 0.0 0.00 0.00 0.00 95 1018.4
20260831083021 69 130 0.0 0.0 0.00 0.00 0.00 95 1018.2
20260831081533 69 130 0.0 0.0 0.00 0.00 0.00 95 1018.1
20260831080045 69 130 0.0 0.0 0.00 0.00 0.00 94 1018.1
20260831074516 69 130 0.0 0.0 0.00 0.00 0.00 94 1018.2
20260831073032 69 130 0.0 0.0 0.00 0.00 0.00 94 1018.2
20260831071510 69 130 0.0 0.0 0.00 0.00 0.00 94 1018.3
20260831070010 69 130 0.0 0.0 0.00 0.00 0.00 94 1018.5
20260831064508 69 130 0.0 0.0 0.00 0.00 0.00 94 1018.6
20260831063004 69 130 0.0 0.0 0.00 0.00 0.00 94 1018.9
20260831061503 69 130 0.0 0.0 0.00 0.00 0.00 93 1019.1
20260831060003 69 130 0.0 0.0 0.00 0.00 0.00 93 1019.1
20260831054504 69 130 0.0 0.0 0.00 0.00 0.00 93 1019.1
20260831053001 69 130 0.0 0.0 0.00 0.00 0.00 93 1019.0
20260831051600 69 130 0.0 0.0 0.00 0.00 0.00 93 1019.0
20260831050101 70 130 0.0 0.0 0.00 0.00 0.00 93 1018.9
20260831044603 70 130 0.0 0.0 0.00 0.00 0.00 92 1018.8
20260831043055 70 130 0.0 0.0 0.00 0.00 0.00 92 1018.9
20260831041606 70 130 0.0 0.0 0.00 0.00 0.00 92 1019.0
20260831040050 71 130 0.0 0.0 0.00 0.00 0.00 91 1019.0
20260831034553 71 130 0.0 0.0 0.00 0.00 0.00 91 1019.1
20260831033049 71 130 0.0 0.0 0.00 0.00 0.00 91 1019.1
20260831031549 71 130 0.0 0.0 0.00 0.00 0.00 90 1019.0
20260831030051 72 130 0.0 0.0 0.00 0.00 0.00 90 1019.0
20260831024548 72 130 0.0 0.0 0.00 0.00 0.00 89 1019.1
20260831023047 72 130 0.0 0.0 0.00 0.00 0.00 89 1019.0
20260831021549 73 130 0.0 0.0 0.00 0.00 0.00 88 1019.0
20260831020047 73 130 0.0 0.0 0.00 0.00 0.00 88 1018.9
20260831014546 73 130 0.0 0.0 0.00 0.00 0.00 87 1018.9
20260831013053 74 130 0.0 0.0 0.00 0.00 0.00 86 1018.8
20260831011549 75 130 0.0 0.0 0.00 0.00 0.00 85 1018.7
20260831004547 76 130 0.0 0.0 0.00 0.00 0.00 80 1018.2
20260831003054 77 130 0.0 0.0 0.00 0.00 0.00 79 1018.3
20260831001543 78 111 0.0 0.0 0.00 0.00 0.00 77 1018.2
20260831000043 80 355 0.0 0.0 0.00 0.00 0.00 77 1018.1
20260830234545 81 355 0.0 0.0 0.00 0.00 0.00 75 1018.0
20260830233041 81 355 0.0 0.0 0.00 0.00 0.00 71 1017.9
20260830231543 82 355 0.0 0.0 0.00 0.00 0.00 68 1017.6
20260830230041 83 355 0.0 0.0 0.00 0.00 0.00 67 1017.4